[[{"header":{"parameterUnit":"m.s-1","parameterCategory":1,"la1":30.2992,"la2":30.254,"lo1":-89.0895,"lo2":-89.0443,"dy":0.0025,"dx":0.0025,"nx":19,"ny":19,"refTime":"2026-05-13T21:00:00:Z","depth":0,"parameterNumber":2,"parameterNumberName":"U-component_of_WINDS"},"data":[0,0,0,0.9299,0.9303,0.9469,0.947,0.9665,0.9667,0,0,0,0,0,0,0,0,0,0,0,0.924,0.9241,0.9299,0.9303,0.9469,0.947,0.9665,0.9667,0,0,0,0,0,0,0,0,0,0,0,0.924,0.9241,0.9242,0.9304,0.9469,0.947,0.9664,0.9545,0,0,0,0,0,0,0,0,0,0,0.9387,0.9322,0.9241,0.9242,0.9304,0.9468,0.947,0.9539,0.9552,0.9583,0,0.9607,0,0.964,0.9679,0.9679,0,0,0,0.931,0.9311,0.9365,0.9242,0.9306,0.9468,0.9396,0.9547,0.9561,0.96,0.961,0.9618,0.9643,0.968,0.9681,0.9835,0.9836,0,0,0.9301,0.9264,0.9355,0.9374,0.9348,0.9391,0.9401,0.9556,0.9565,0.9611,0.9623,0.9647,0.9681,0.9682,0.9835,0.9836,0,0,0,0.927,0.9257,0.9308,0.9366,0.9397,0.9395,0.9407,0.9558,0.9578,0.9625,0.9649,0.9682,0.9684,0.9835,0.9835,0.9821,0,0,0,0.9265,0.924,0.9304,0.9283,0.9394,0.948,0.9405,0.9567,0.9586,0.9648,0.9682,0.9686,0.9834,0.9835,0.982,0.982,0,0,0,0.9233,0.9236,0.9257,0.9281,0.9351,0.9478,0.9507,0.9572,0.96,0.9679,0.9687,0.9834,0.9835,0.982,0.9819,0.9852,0,0,0,0.9188,0.9239,0.9256,0.9323,0.9349,0.9468,0.9506,0.9596,0.9662,0.9683,0.9834,0.9835,0.982,0.9819,0.9851,0.9873,0.9878,0,0,0.9232,0.9243,0.9286,0.9306,0.9412,0.9445,0.955,0.9644,0.9684,0.9783,0.9787,0.9821,0.9819,0.9852,0.992,0.9924,0,0,0,0.9287,0.9318,0.9354,0.9417,0.9491,0.9556,0.9639,0.9675,0.9761,0.9728,0.9842,0.9842,0.9862,0.9875,0.9878,0.9899,0.9839,0.9839,0.9839,0.9297,0.9348,0.9423,0.9494,0.9554,0.9641,0.9695,0.9758,0.9789,0.9815,0.9845,0.9881,0.9894,0.9897,0.9918,0.986,0.986,0.986,0.986,0.9368,0.942,0.9464,0.9552,0.9605,0.9679,0.9766,0.9786,0.9863,0.9862,0.9882,0.9877,0.99,0.9921,0.9859,0.9859,0.9859,0.9859,0.9859,0.9381,0.9415,0.9459,0.9557,0.9627,0.9698,0.9771,0.9817,0.986,0.988,0.9918,0.9918,0.9925,0.9895,0.9895,0.9895,0.9895,0.9895,0.9895,0.9377,0.9427,0.9484,0.957,0.9618,0.9687,0.9777,0.9826,0.9891,0.9918,0.9919,0.9949,0.9892,0.9878,0.9897,0.9897,0.9897,0.9897,0.9896,0.9431,0.9427,0.9514,0.9563,0.967,0.9738,0.9796,0.9892,0.9938,0.9973,1.0,0.995,0.9964,0.9962,0.995,0.9988,0.9988,0.9988,0.9988,0.9442,0.9454,0.9556,0.9631,0.971,0.9773,0.9871,0.9943,1.0015,1.0048,1.0049,1.0037,1.0032,1.0049,1.0045,1.0035,1.0093,1.0093,1.0093,0.9479,0.9502,0.9577,0.965,0.9738,0.9812,0.9907,0.9992,1.0073,1.0099,1.0074,1.007,1.0052,1.0043,1.0067,1.0059,1.0042,0,0]},{"header":{"parameterUnit":"m.s-1","parameterCategory":1,"la1":30.2992,"la2":30.254,"lo1":-89.0895,"lo2":-89.0443,"dy":0.0025,"dx":0.0025,"nx":19,"ny":19,"refTime":"2026-05-13T21:00:00:Z","depth":0,"parameterNumber":3,"parameterNumberName":"V-component_of_WINDS"},"data":[0,0,0,-1.2136,-1.2134,-1.2023,-1.2023,-1.187,-1.1869,0,0,0,0,0,0,0,0,0,0,0,-1.2162,-1.2161,-1.2136,-1.2133,-1.2023,-1.2023,-1.1871,-1.1869,0,0,0,0,0,0,0,0,0,0,0,-1.2162,-1.2161,-1.2159,-1.2133,-1.2023,-1.2023,-1.1871,-1.1958,0,0,0,0,0,0,0,0,0,0,-1.2067,-1.2084,-1.2161,-1.2159,-1.2132,-1.2023,-1.2023,-1.1963,-1.1953,-1.1916,0,-1.1881,0,-1.1872,-1.1858,-1.1857,0,0,0,-1.2138,-1.2092,-1.2069,-1.2159,-1.2131,-1.2024,-1.2074,-1.1957,-1.1946,-1.1902,-1.1879,-1.1873,-1.187,-1.1857,-1.1856,-1.1629,-1.1628,0,0,-1.2144,-1.2138,-1.2077,-1.2061,-1.2078,-1.2078,-1.2071,-1.1951,-1.1924,-1.1878,-1.187,-1.1867,-1.1856,-1.1855,-1.1631,-1.1629,0,0,0,-1.2159,-1.2142,-1.2122,-1.2067,-1.2049,-1.2075,-1.2066,-1.1929,-1.1923,-1.1868,-1.1866,-1.1855,-1.1853,-1.1632,-1.163,-1.1563,0,0,0,-1.2163,-1.215,-1.2124,-1.2119,-1.205,-1.1987,-1.2047,-1.1932,-1.1918,-1.1866,-1.1855,-1.1851,-1.1633,-1.1631,-1.1568,-1.1532,0,0,0,-1.2171,-1.2151,-1.2133,-1.2119,-1.2071,-1.1989,-1.1977,-1.1929,-1.1916,-1.1857,-1.1851,-1.1634,-1.1631,-1.1572,-1.1539,-1.1474,0,0,0,-1.2178,-1.2071,-1.2132,-1.2011,-1.2072,-1.1948,-1.1978,-1.1885,-1.1826,-1.1854,-1.1633,-1.163,-1.1574,-1.1544,-1.1479,-1.142,-1.1394,0,0,-1.204,-1.2054,-1.1984,-1.2035,-1.19,-1.1966,-1.182,-1.1771,-1.177,-1.1676,-1.1671,-1.1566,-1.154,-1.1475,-1.1246,-1.1226,0,0,0,-1.1938,-1.1888,-1.1854,-1.1799,-1.176,-1.1726,-1.17,-1.1683,-1.1605,-1.1721,-1.1524,-1.1508,-1.147,-1.1443,-1.1425,-1.1395,-1.1616,-1.1617,-1.1617,-1.1732,-1.174,-1.1626,-1.1622,-1.1568,-1.1545,-1.1503,-1.1476,-1.1495,-1.145,-1.1422,-1.1283,-1.125,-1.1237,-1.1205,-1.1389,-1.1389,-1.1389,-1.1389,-1.1532,-1.1464,-1.1498,-1.14,-1.141,-1.1327,-1.1302,-1.132,-1.1246,-1.1303,-1.127,-1.1334,-1.1214,-1.1187,-1.1384,-1.1385,-1.1385,-1.1386,-1.1386,-1.14,-1.1369,-1.1352,-1.1277,-1.1218,-1.1217,-1.1146,-1.1155,-1.1163,-1.113,-1.1106,-1.1107,-1.1112,-1.1118,-1.1117,-1.1117,-1.1116,-1.1116,-1.1116,-1.1271,-1.1254,-1.1193,-1.1147,-1.1116,-1.1076,-1.1054,-1.1024,-1.0992,-1.1005,-1.1005,-1.1033,-1.12,-1.1244,-1.1108,-1.1109,-1.111,-1.1111,-1.1112,-1.107,-1.1118,-1.1024,-1.0993,-1.0943,-1.0886,-1.09,-1.0838,-1.0814,-1.0779,-1.0815,-1.0936,-1.0951,-1.0965,-1.1002,-1.0811,-1.0811,-1.0811,-1.0811,-1.096,-1.097,-1.0879,-1.083,-1.0783,-1.0788,-1.0684,-1.0668,-1.0658,-1.0645,-1.0673,-1.0722,-1.0735,-1.0743,-1.0761,-1.0796,-1.0557,-1.0557,-1.0557,-1.0839,-1.0845,-1.0755,-1.0749,-1.0711,-1.0679,-1.0583,-1.0526,-1.0524,-1.0547,-1.0635,-1.0646,-1.0724,-1.0748,-1.0774,-1.0803,-1.0866,0,0]}]]